User: anonymous   Login
Location: Unspecified
(0.0000°N, 0.0000°E)
Time: 00:13:34
(UTC+00:00)
Language:

Gurwin Techsat 1B - Orbit

View from above orbital plane
View from above orbital plane
View from above satellite
View from above satellite

Ground track
Ground track

The orbit data is extracted from the following two-line orbital elements,

1 25397U 98043D   17328.43990560 +.00000003 +00000-0 +20378-4 0  9994
2 25397 098.6273 267.5117 0000280 205.8281 154.2884 14.23634332006377
Epoch (UTC): 24 November 2017 10:33:27
Eccentricity: 0.0000280
inclination: 98.6273°
perigee height: 813 km
apogee height: 813 km
right ascension of ascending node: 267.5117°
argument of perigee: 205.8281°
revolutions per day: 14.23634332
mean anomaly at epoch: 154.2884°
orbit number at epoch: 637

The dashed part of the orbit path shows where the satellite is in the earth's shadow,  

DLR